Location: Baix
(44.7118°N, 4.7648°E)
Time: 16:24:29
(UTC+00:00)

Cosmos 1626 - Pass Details

Date: 07 August 2020
Orbit: 491 x 494 km, 82.5° (Epoch: 22 September)

Event Time Altitude Azimuth Distance (km) Brightness Sun altitude
Rises 02:33:14 0° 343° (NNW) 2,591 6.2 -18.2°
Reaches altitude 10° 02:35:27 10° 335° (NNW) 1,703 5.1 -17.9°
Maximum altitude 02:38:53 36° 268° (W) 794 2.7 -17.5°
Enters shadow 02:39:02 36° 262° (W) 797 2.7 -17.5°
